Home   Weather   Post Falls   Past weeks
Flag for USA

Past Weather in Post Falls, Idaho, USA — Yesterday and Last 2 Weeks

Now
33 °F

Clear.


Feels Like: 29 °F
Forecast: 45 / 28 °F
Wind: 5 mph from Southeast

Location: Coeur d'Alene Weather Reporting System

Current Time: Apr 1, 2020 at 10:57:12 pm

Latest Report: Apr 1, 2020 at 9:56 pm


Visibility: 10 mi

Pressure: 30.09 "Hg (27.69 "Hg at 664m altitude)

Humidity: 85%

Dew Point: 29 °F

Location of Post FallsLocation

Past Weather in Post Falls — Graph

°F

Post Falls Temperature Yesterday

Maximum temperature yesterday: 39 °F (at 11:22 am)
Minimum temperature yesterday: 33 °F (at 5:56 am)
Average temperature yesterday: 35 °F

High & Low Weather Summary for the Past Weeks

 TemperatureHumidityPressure
High58 °F (Mar 20, 2:56 pm)100% (Mar 25, 4:07 am)30.30 "Hg (Mar 25, 4:07 am)
Low26 °F (Mar 19, 3:56 am)21% (Mar 22, 12:56 pm)29.72 "Hg (Mar 30, 11:39 am)
Average40 °F72%29.99 "Hg
* Reported Mar 17 8:56 pm — Apr 1 8:56 pm, Post Falls. Weather by CustomWeather, © 2020

Note: Actual official high and low records may vary slightly from our data, if they occured in-between our weather recording intervals... More about our weather records

Post Falls Weather History for the Previous 24 Hours

Scroll right to see more
 ConditionsComfort  
Time TempWeatherWind HumidityBarometerVisibility
8:56 pm
Wed, Apr 1
33 °FClear.No wind85%30.09 "Hg10 mi
7:56 pm34 °FClear.3 mph82%30.07 "Hg10 mi
6:56 pm37 °FSunny.7 mph73%30.05 "Hg10 mi
5:56 pm40 °FMostly cloudy.7 mph63%30.04 "Hg10 mi
4:56 pm41 °FSunny.3 mph60%30.03 "Hg10 mi
3:56 pm40 °FSunny.5 mph63%30.03 "Hg10 mi
2:56 pm39 °FBroken clouds.6 mph67%30.03 "Hg10 mi
1:56 pm37 °FOvercast.5 mph76%30.04 "Hg10 mi
1:10 pm36 °FOvercast.3 mph81%29.95 "Hg10 mi
11:56 am36 °FOvercast.6 mph79%30.06 "Hg10 mi
10:56 am35 °FOvercast.3 mph78%30.06 "Hg10 mi
9:56 am35 °FOvercast.3 mph82%30.06 "Hg10 mi
8:56 am33 °FOvercast.5 mph85%30.06 "Hg10 mi
7:56 am32 °FOvercast.5 mph92%30.06 "Hg10 mi
6:56 am31 °FOvercast.No wind96%30.05 "Hg10 mi
6:09 am28 °FPassing clouds.No wind100%29.93 "Hg10 mi
5:34 am28 °FPassing clouds.No wind100%29.93 "Hg10 mi
4:56 am29 °FMostly cloudy.No wind96%30.04 "Hg8 mi
4:28 am28 °FIce fog.No wind93%29.93 "Hg3 mi
3:56 am30 °FMostly cloudy.3 mph96%30.03 "Hg10 mi
2:56 am30 °FPassing clouds.No wind92%30.03 "Hg10 mi
1:56 am31 °FPassing clouds.No wind92%30.02 "Hg10 mi
1:26 am32 °FLow clouds.No wind93%29.92 "Hg10 mi
12:56 am32 °FLight snow. Mostly cloudy.3 mph96%30.02 "Hg10 mi
12:14 am32 °FLight snow. Passing clouds.6 mph93%29.91 "Hg10 mi
11:56 pm
Tue, Mar 31
33 °FLight snow. Fog.7 mph92%30.03 "Hg3 mi
10:56 pm33 °FPassing clouds.8 mph92%30.01 "Hg10 mi
Weather by CustomWeather, © 2020

See weather overview

Advertising